[[{"header":{"parameterUnit":"m.s-1","parameterCategory":1,"la1":30.2991,"la2":30.254,"lo1":-89.0895,"lo2":-89.0444,"dy":0.0017,"dx":0.0017,"nx":28,"ny":28,"refTime":"2023-08-26T21:00:00:Z","depth":0,"parameterNumber":2,"parameterNumberName":"U-component_of_WINDS"},"data":[0,0,0,0,0,0,0,0,0,0,0,0,0,0,0,0,0,0,0,0,0,0,0,0,0,0,0,0,0,0,0,0,0,0,0,0,0,0,0,0,0,0,0,0,0,0,0,0,0,0,0,0,0,0,0,0,0,0,-0.1574,-0.1573,0,-0.1522,-0.1521,-0.152,-0.1593,-0.1595,-0.1598,-0.16,-0.1541,-0.1538,-0.1534,0,0,0,0,0,0,0,0,0,0,0,0,0,-0.1729,-0.1726,-0.1574,-0.1573,-0.1572,-0.1522,-0.1521,-0.152,-0.1592,-0.1595,-0.1599,-0.1602,-0.1543,-0.1538,-0.1533,0,0,0,0,0,0,0,0,0,0,0,0,0,-0.1667,-0.1725,-0.1574,-0.1602,-0.1604,-0.1522,-0.1521,-0.152,-0.1592,-0.1596,-0.1599,-0.1603,-0.1544,-0.1538,-0.1533,-0.1418,0,0,-0.1514,-0.1512,0,0,0,0,0,0,0,0,-0.1671,-0.1662,-0.1599,-0.16,-0.1602,-0.1568,-0.1554,-0.1485,-0.1591,-0.1596,-0.16,-0.1605,-0.1547,-0.1541,-0.1522,-0.1415,-0.1412,-0.1514,-0.151,-0.1508,-0.1506,0,0,0,0,0,0,0,-0.1675,-0.1664,-0.1553,-0.1598,-0.16,-0.1616,-0.1611,-0.1541,-0.155,-0.1596,-0.1601,-0.1594,-0.1548,-0.1528,-0.1521,-0.1412,-0.1514,-0.1509,-0.1505,-0.1503,-0.1205,-0.1201,0,0,0,0,0,0,-0.1677,-0.1667,-0.1555,-0.1551,-0.1647,-0.161,-0.1605,-0.1575,-0.1551,-0.1551,-0.1591,-0.1598,-0.1536,-0.1528,-0.152,-0.1382,-0.1508,-0.1502,-0.1499,-0.1209,-0.1204,-0.12,0,0,0,0,0,0,-0.168,-0.1666,-0.1557,-0.1611,-0.1598,-0.1603,-0.1569,-0.1572,-0.1551,-0.1547,-0.1549,-0.1569,-0.1539,-0.1528,-0.1442,-0.1381,-0.1499,-0.1494,-0.1214,-0.1208,-0.1202,-0.1106,0,0,0,0,0,0,-0.1684,-0.1667,-0.1625,-0.1609,-0.1595,-0.1482,-0.1565,-0.1568,-0.1542,-0.155,-0.1527,-0.1527,-0.1541,-0.1451,-0.1436,-0.1375,-0.1489,-0.122,-0.1212,-0.1204,-0.1115,-0.1097,-0.1082,0,0,0,0,0,-0.1689,-0.1599,-0.1622,-0.1608,-0.1543,-0.1478,-0.147,-0.149,-0.1536,-0.1493,-0.149,-0.1527,-0.139,-0.1442,-0.1426,-0.1361,-0.1224,-0.1214,-0.1205,-0.1122,-0.1101,-0.1083,0,0,0,0,0,0,-0.1605,-0.1597,-0.1623,-0.1525,-0.1502,-0.1491,-0.1436,-0.1467,-0.1428,-0.1437,-0.1462,-0.1456,-0.1364,-0.1355,-0.1412,-0.1248,-0.1315,-0.1301,-0.1257,-0.1237,-0.1221,-0.1224,-0.1484,0,0,0,0,0,-0.1575,-0.1525,-0.1521,-0.1435,-0.1422,-0.1431,-0.1404,-0.1421,-0.1397,-0.1387,-0.1378,-0.1352,-0.1303,-0.127,-0.1224,-0.1114,-0.1109,-0.1062,-0.1046,-0.1033,-0.102,-0.0959,-0.0937,-0.1168,-0.1168,-0.1168,0,0,-0.1512,-0.1502,-0.1469,-0.1418,-0.1402,-0.1347,-0.1422,-0.1362,-0.1321,-0.1377,-0.1296,-0.1288,-0.126,-0.1162,-0.1118,-0.1151,-0.0955,-0.102,-0.101,-0.1004,-0.0946,-0.0925,-0.0905,-0.1161,-0.1162,-0.1163,0,0,-0.137,-0.1359,-0.1285,-0.1268,-0.1243,-0.125,-0.1232,-0.1216,-0.1213,-0.1133,-0.1173,-0.1124,-0.104,-0.1018,-0.0995,-0.0844,-0.0876,-0.0829,-0.0742,-0.0682,-0.0664,-0.0648,-0.0592,-0.0571,-0.0817,-0.0816,-0.0816,0,-0.1295,-0.1217,-0.1243,-0.1179,-0.1154,-0.1205,-0.1129,-0.1111,-0.1071,-0.1052,-0.109,-0.0984,-0.0969,-0.0865,-0.0828,-0.0809,-0.0787,-0.083,-0.0665,-0.0649,-0.0635,-0.0581,-0.056,-0.0811,-0.0811,-0.0812,-0.0812,0,-0.1124,-0.1069,-0.1012,-0.0974,-0.0943,-0.0874,-0.0887,-0.0852,-0.0873,-0.0874,-0.079,-0.0774,-0.0725,-0.0702,-0.0721,-0.06,-0.0621,-0.0662,-0.0729,-0.0606,-0.0556,-0.0536,-0.0802,-0.0804,-0.0806,-0.0807,0,0,-0.0925,-0.0904,-0.0882,-0.0865,-0.0842,-0.0798,-0.0731,-0.0685,-0.0653,-0.0624,-0.0566,-0.0493,-0.0531,-0.0505,-0.0522,-0.047,-0.0348,-0.0517,-0.0517,-0.0484,-0.021,-0.0178,-0.0154,-0.037,-0.0367,-0.0364,-0.0212,0,-0.0782,-0.0666,-0.0687,-0.0574,-0.0521,-0.0569,-0.0509,-0.0487,-0.0487,-0.0441,-0.044,-0.0387,-0.0442,-0.0427,-0.0377,-0.0373,-0.0293,-0.0385,-0.0313,-0.031,-0.0316,-0.0128,-0.0094,0.0048,-0.0193,-0.019,-0.0187,0,-0.0598,-0.0564,-0.0445,-0.0429,-0.0408,-0.0354,-0.0313,-0.027,-0.0245,-0.0248,-0.022,-0.0246,-0.0175,-0.0246,-0.0148,-0.0209,-0.0182,-0.0175,-0.017,-0.0162,-0.024,-0.0112,0.0093,0.0116,-0.0157,-0.016,-0.0162,0,-0.0462,-0.0386,-0.0305,-0.029,-0.0269,-0.023,-0.0219,-0.0199,-0.0169,-0.0133,-0.0114,-0.0069,-0.0044,-0.0008,-0.002,-0.007,0.0082,0.001,0.0083,0.0084,0.012,0.0118,0.0335,0.0133,0.0133,0.0132,0.0132,0,-0.0298,-0.0222,-0.0244,-0.0193,-0.011,-0.0135,-0.0051,-0.0045,-0.0026,0.0026,-0.0013,0.0038,0.0017,0.0066,0.0057,0.0141,0.0152,0.0153,0.0151,0.0158,0.0159,0.0178,0.0169,0.0138,0.0137,0.0136,0.0135,0,-0.013,-0.0142,-0.0056,-0.0045,-0.004,0.0022,0.0033,0.0081,0.0078,0.0145,0.0159,0.0155,0.0211,0.0202,0.0264,0.0258,0.0364,0.0348,0.0356,0.0353,0.0428,0.0422,0.0667,0.0699,0.0474,0.0476,0.0478,0,-0.0023,0.0033,0.0051,0.0082,0.0095,0.0146,0.0176,0.0154,0.0186,0.0219,0.0265,0.0317,0.0358,0.0451,0.0455,0.0503,0.049,0.0572,0.0497,0.0504,0.0494,0.0492,0.0499,0.0588,0.0591,0.0593,0.0594,0,0.0169,0.016,0.0203,0.0244,0.028,0.0312,0.0341,0.0369,0.035,0.0389,0.0445,0.0477,0.054,0.0594,0.0639,0.0652,0.0622,0.0618,0.0638,0.0648,0.0651,0.0653,0.0399,0.0613,0.0611,0.061,0.0609,0.0608,0.0311,0.036,0.038,0.043,0.0448,0.0476,0.0522,0.0524,0.057,0.0619,0.0604,0.0669,0.0694,0.0751,0.0769,0.0821,0.0791,0.0819,0.0827,0.0835,0.0845,0.064,0.0829,0.0828,0.0828,0.0827,0.0827,0,0.0504,0.0514,0.0559,0.06,0.064,0.0604,0.0634,0.067,0.0727,0.0752,0.0793,0.0859,0.0911,0.0918,0.0968,0.1009,0.0996,0.1023,0.1021,0.1025,0.0868,0.0847,0.1032,0.1032,0.1032,0.1032,0.1032,0.1032,0.0609,0.069,0.0684,0.0775,0.0785,0.0847,0.0868,0.0894,0.0913,0.0988,0.1031,0.1034,0.1053,0.1104,0.1151,0.1152,0.1174,0.1207,0.1203,0.1056,0.1036,0.1017,0.0997,0.1211,0.1211,0.1356,0.1358,0.1359]},{"header":{"parameterUnit":"m.s-1","parameterCategory":1,"la1":30.2991,"la2":30.254,"lo1":-89.0895,"lo2":-89.0444,"dy":0.0017,"dx":0.0017,"nx":28,"ny":28,"refTime":"2023-08-26T21:00:00:Z","depth":0,"parameterNumber":3,"parameterNumberName":"V-component_of_WINDS"},"data":[0,0,0,0,0,0,0,0,0,0,0,0,0,0,0,0,0,0,0,0,0,0,0,0,0,0,0,0,0,0,0,0,0,0,0,0,0,0,0,0,0,0,0,0,0,0,0,0,0,0,0,0,0,0,0,0,0,0,-0.8005,-0.8005,0,-0.7931,-0.793,-0.7929,-0.7986,-0.7988,-0.7991,-0.7993,-0.7914,-0.791,-0.7906,0,0,0,0,0,0,0,0,0,0,0,0,0,-0.8198,-0.8194,-0.8006,-0.8005,-0.8004,-0.7931,-0.793,-0.7929,-0.7985,-0.7988,-0.7991,-0.7994,-0.7916,-0.7911,-0.7905,0,0,0,0,0,0,0,0,0,0,0,0,0,-0.8118,-0.8193,-0.8006,-0.8023,-0.8024,-0.7931,-0.793,-0.7929,-0.7985,-0.7988,-0.7992,-0.7995,-0.7917,-0.7911,-0.7905,-0.779,0,0,-0.7884,-0.7882,0,0,0,0,0,0,0,0,-0.8123,-0.8111,-0.8021,-0.8022,-0.8022,-0.7971,-0.7969,-0.7882,-0.7984,-0.7999,-0.7993,-0.7997,-0.793,-0.7923,-0.7901,-0.7786,-0.7783,-0.7884,-0.788,-0.7877,-0.7875,0,0,0,0,0,0,0,-0.8128,-0.8114,-0.7976,-0.802,-0.8021,-0.8035,-0.8028,-0.7953,-0.7945,-0.7998,-0.8002,-0.7993,-0.7931,-0.7907,-0.7899,-0.7782,-0.7884,-0.7878,-0.7874,-0.7872,-0.7576,-0.7573,0,0,0,0,0,0,-0.8132,-0.8119,-0.7978,-0.7974,-0.8083,-0.8029,-0.802,-0.7984,-0.7946,-0.7944,-0.799,-0.7996,-0.7916,-0.7907,-0.7897,-0.7765,-0.7877,-0.7871,-0.7867,-0.758,-0.7576,-0.7571,0,0,0,0,0,0,-0.8136,-0.8119,-0.7981,-0.8047,-0.8031,-0.8021,-0.798,-0.7981,-0.7956,-0.7939,-0.7938,-0.7966,-0.7919,-0.7906,-0.7818,-0.7762,-0.7868,-0.7862,-0.7585,-0.7579,-0.7574,-0.7496,0,0,0,0,0,0,-0.8141,-0.812,-0.8076,-0.8046,-0.8027,-0.7903,-0.7976,-0.7976,-0.7945,-0.7952,-0.7917,-0.7915,-0.7921,-0.7827,-0.7811,-0.7755,-0.7857,-0.759,-0.7582,-0.7575,-0.7504,-0.7489,-0.7476,0,0,0,0,0,-0.8148,-0.8055,-0.8073,-0.8056,-0.7972,-0.7899,-0.7889,-0.7898,-0.794,-0.7897,-0.7887,-0.7916,-0.7771,-0.7818,-0.78,-0.7741,-0.7593,-0.7584,-0.7576,-0.751,-0.7492,-0.7476,0,0,0,0,0,0,-0.8076,-0.8051,-0.8071,-0.7966,-0.7935,-0.7909,-0.7854,-0.7877,-0.7832,-0.7841,-0.7854,-0.7845,-0.7754,-0.7738,-0.7791,-0.7632,-0.7689,-0.7676,-0.7645,-0.7627,-0.7614,-0.762,-0.7851,0,0,0,0,0,-0.8048,-0.7992,-0.7973,-0.7882,-0.7866,-0.7862,-0.7831,-0.7842,-0.781,-0.7796,-0.778,-0.7747,-0.7695,-0.766,-0.761,-0.7502,-0.7497,-0.7453,-0.7439,-0.7428,-0.7417,-0.7364,-0.7345,-0.7543,-0.7543,-0.7543,0,0,-0.7989,-0.7969,-0.7932,-0.7867,-0.7844,-0.7787,-0.7851,-0.7786,-0.7744,-0.7786,-0.7704,-0.769,-0.7655,-0.7558,-0.7514,-0.7542,-0.7362,-0.7416,-0.7407,-0.7403,-0.7353,-0.7334,-0.7318,-0.7537,-0.7538,-0.7539,0,0,-0.7854,-0.7832,-0.7756,-0.7733,-0.7699,-0.7698,-0.768,-0.7652,-0.7646,-0.7563,-0.7595,-0.7546,-0.7454,-0.743,-0.7405,-0.7266,-0.7293,-0.7249,-0.7176,-0.7124,-0.7109,-0.7095,-0.705,-0.7033,-0.7239,-0.7238,-0.7238,0,-0.7786,-0.7701,-0.7714,-0.7649,-0.7621,-0.7659,-0.7584,-0.756,-0.7511,-0.7491,-0.7524,-0.7414,-0.7392,-0.7292,-0.7259,-0.7236,-0.7219,-0.7254,-0.711,-0.7096,-0.7084,-0.7041,-0.7023,-0.7234,-0.7234,-0.7235,-0.7235,0,-0.762,-0.7561,-0.7504,-0.7459,-0.7425,-0.7354,-0.7359,-0.7322,-0.7337,-0.7333,-0.7251,-0.7227,-0.7177,-0.7153,-0.7164,-0.7056,-0.7075,-0.7108,-0.7167,-0.706,-0.702,-0.7003,-0.7227,-0.7229,-0.723,-0.7231,0,0,-0.7436,-0.7403,-0.7382,-0.7364,-0.7331,-0.7286,-0.7219,-0.7171,-0.7142,-0.7107,-0.7054,-0.6978,-0.701,-0.6982,-0.6992,-0.6946,-0.6844,-0.6985,-0.6985,-0.6963,-0.6727,-0.6705,-0.6685,-0.6861,-0.6858,-0.6855,-0.6732,0,-0.7302,-0.7187,-0.72,-0.7091,-0.7039,-0.7076,-0.7019,-0.6993,-0.6989,-0.6945,-0.694,-0.6888,-0.6932,-0.6916,-0.6872,-0.6865,-0.6797,-0.6874,-0.6813,-0.6811,-0.6824,-0.6664,-0.6638,-0.6523,-0.6716,-0.6713,-0.6711,0,-0.713,-0.7094,-0.698,-0.6961,-0.694,-0.6888,-0.6848,-0.6804,-0.6777,-0.6778,-0.6749,-0.6769,-0.6704,-0.6763,-0.6676,-0.6728,-0.6704,-0.6697,-0.6693,-0.669,-0.6756,-0.6659,-0.6486,-0.647,-0.6686,-0.6688,-0.6689,0,-0.7013,-0.6934,-0.6858,-0.6841,-0.6815,-0.6779,-0.6766,-0.6743,-0.6715,-0.668,-0.6663,-0.6619,-0.6596,-0.6563,-0.6571,-0.6612,-0.6484,-0.6542,-0.6484,-0.6484,-0.6457,-0.6459,-0.6281,-0.6436,-0.6436,-0.6437,-0.6437,0,-0.6864,-0.6794,-0.6806,-0.6759,-0.6683,-0.6699,-0.6623,-0.6615,-0.6595,-0.6549,-0.6577,-0.6533,-0.6545,-0.6502,-0.6508,-0.6438,-0.6426,-0.6426,-0.6429,-0.6425,-0.6426,-0.6411,-0.6421,-0.6432,-0.6433,-0.6434,-0.6435,0,-0.6719,-0.6724,-0.6644,-0.6628,-0.6622,-0.6568,-0.6554,-0.6511,-0.6511,-0.6452,-0.6439,-0.6438,-0.6389,-0.6394,-0.6338,-0.6343,-0.6257,-0.6267,-0.6266,-0.627,-0.6214,-0.622,-0.6022,-0.5999,-0.6166,-0.6165,-0.6163,0,-0.6625,-0.6573,-0.6553,-0.6525,-0.6511,-0.6464,-0.6438,-0.6452,-0.6423,-0.6392,-0.6353,-0.6307,-0.6272,-0.6193,-0.6187,-0.6146,-0.6158,-0.6092,-0.6152,-0.6152,-0.6162,-0.6166,-0.6163,-0.6081,-0.6079,-0.6077,-0.6076,0,-0.646,-0.6466,-0.6427,-0.6389,-0.6357,-0.6328,-0.6301,-0.6277,-0.6289,-0.6255,-0.6207,-0.6179,-0.6125,-0.6081,-0.6043,-0.6031,-0.6056,-0.6057,-0.6042,-0.6039,-0.6043,-0.6044,-0.6238,-0.6062,-0.6063,-0.6064,-0.6065,-0.6065,-0.634,-0.6298,-0.6279,-0.6236,-0.6218,-0.6194,-0.6155,-0.6151,-0.6112,-0.607,-0.608,-0.6027,-0.6006,-0.5958,-0.5943,-0.5902,-0.5926,-0.5904,-0.5899,-0.5894,-0.5889,-0.6047,-0.5895,-0.5895,-0.5895,-0.5896,-0.5896,0,-0.618,-0.6171,-0.6131,-0.6095,-0.6062,-0.609,-0.6063,-0.6034,-0.5987,-0.5966,-0.5932,-0.5879,-0.5837,-0.583,-0.5791,-0.576,-0.5771,-0.575,-0.5754,-0.5751,-0.5868,-0.5886,-0.5742,-0.5742,-0.5742,-0.5742,-0.5742,-0.5742,-0.6093,-0.6025,-0.603,-0.5954,-0.5945,-0.5895,-0.5878,-0.5857,-0.5841,-0.5781,-0.5748,-0.5744,-0.5729,-0.569,-0.5654,-0.5653,-0.5639,-0.5614,-0.5618,-0.5727,-0.5742,-0.5757,-0.5775,-0.561,-0.5609,-0.5506,-0.5505,-0.5504]}]]